Location: Caracas
(10.5033°N, 66.8422°W)
Time: 03:46:57
(UTC-04:00)

OTV 5 (USA 277) - Visible Passes

Search period start: 21 May 2019 00:00
Search period end: 31 May 2019 00:00
Orbit: 310 x 325 km, 54.5° (Epoch: 08 May)

Date Brightness Start Highest point End Pass type
(mag) Time Alt. Az. Time Alt. Az. Time Alt. Az.
21 May ? 19:03:41 10° NW 19:06:05 32° WSW 19:08:31 10° S visible
25 May ? 05:39:33 10° SSE 05:40:57 13° ESE 05:42:21 10° E visible
28 May ? 04:49:52 22° SSE 04:50:49 27° ESE 04:53:12 10° ENE visible
29 May ? 05:04:45 35° WSW 05:05:27 46° NW 05:08:06 10° NNE visible
30 May ? 05:19:32 10° WNW 05:20:12 11° NW 05:20:54 10° NW visible
